SCP
0 0 0 0 0 0 0 0 0 0 0 0 0 1 2 2 2 2 3 4 3 2 2 3 4 4 3 3 2 2 1 1 1 1 2 2 2 2 1 1 1 1 1 1 1 1 1 1 0
0 0 0 0 0 0 0 0 0 0 0 0 1 1 2 3 3 3 3 3 2 2 2 3 4 4 4 3 2 2 2 1 1 1 2 2 2 2 1 1 1 1 1 1 1 1 1 1 1
0 0 0 0 0 0 0 0 0 0 0 1 1 2 3 4 4 3 2 2 1 1 2 3 4 4 4 3 3 2 2 2 1 1 2 2 2 2 1 1 1 1 1 1 1 1 1 1 1
0 0 0 0 0 0 0 0 0 0 1 1 3 3 4 4 3 3 2 2 2 2 2 3 4 5 4 4 3 3 2 2 2 1 2 2 2 2 1 1 1 1 1 1 1 1 1 1 1
0 0 0 0 0 0 0 0 0 0 1 2 4 4 4 3 3 3 2 2 2 2 3 3 4 4 4 4 3 3 3 2 2 2 2 2 2 2 1 1 1 1 1 1 1 1 1 1 1
0 0 0 0 0 0 0 0 0 0 1 2 4 4 3 3 3 3 2 2 3 3 3 4 4 4 4 4 3 3 3 3 2 2 2 2 2 2 1 1 1 1 1 1 1 1 1 1 1
0 0 0 0 0 0 0 0 0 1 1 2 3 4 4 4 4 3 3 3 3 3 4 4 4 4 4 4 4 3 3 3 2 2 2 1 1 1 1 1 1 1 1 1 1 2 2 2 2
0 0 0 0 0 0 0 0 0 0 1 1 2 4 5 6 6 5 5 4 4 4 4 4 4 4 4 4 4 3 3 3 2 2 2 1 1 1 1 1 1 1 1 1 2 2 2 2 2
0 0 0 0 0 0 0 0 0 1 2 2 3 5 7 8 8 7 6 5 5 5 5 4 4 4 4 4 3 3 3 3 2 2 2 1 1 1 1 1 1 1 1 1 2 2 2 2 2
0 0 0 0 0 0 0 0 1 2 3 3 4 6 7 8 7 6 5 5 4 5 5 5 4 4 4 4 4 4 3 3 2 2 2 1 1 1 1 1 1 1 1 1 1 2 2 2 2
0 0 0 0 0 0 0 0 1 3 4 5 5 6 6 6 5 5 4 4 3 3 4 4 4 4 4 4 4 4 4 4 3 2 2 2 1 1 1 1 1 1 1 1 1 1 1 1 1
0 0 0 0 0 0 0 0 2 4 6 6 6 5 4 4 4 4 3 3 3 3 3 3 4 4 4 4 5 5 4 4 4 3 3 2 2 1 1 1 1 1 1 1 1 1 1 1 1
0 0 0 0 0 0 0 1 3 5 6 6 5 4 2 2 3 3 3 3 3 3 3 3 4 5 4 4 5 5 4 4 4 4 3 2 2 1 1 1 1 1 1 1 1 1 1 1 1
0 0 0 0 0 0 0 1 3 4 5 4 3 2 1 1 2 3 4 4 4 4 4 4 4 5 5 5 5 4 4 4 4 3 3 2 2 1 1 1 1 1 1 1 1 1 1 1 1
0 0 0 0 0 0 0 1 2 2 3 2 1 1 1 1 2 4 6 6 6 6 6 5 4 4 4 4 4 4 4 4 4 3 3 2 2 1 1 1 1 1 1 1 1 1 1 1 1
0 0 0 0 0 0 0 0 1 2 2 2 1 1 1 1 2 4 6 8 8 8 8 6 5 4 3 3 3 3 3 3 3 3 3 2 2 2 2 2 2 2 2 2 2 2 2 2 2
0 0 0 0 0 0 0 1 2 3 3 2 2 1 1 1 2 4 6 8 10 10 9 7 5 5 4 4 3 3 3 3 3 4 3 3 3 2 2 2 2 2 2 2 2 2 2 2 2
0 0 0 0 0 0 1 2 3 4 3 2 2 2 2 2 3 4 7 9 11 11 10 8 7 7 6 5 4 4 4 4 4 4 4 4 4 3 3 3 3 3 3 3 3 2 2 2 2
0 0 0 0 0 0 1 2 3 3 2 2 2 2 3 4 4 5 7 10 11 11 10 9 8 8 8 7 6 5 6 6 6 6 6 6 5 5 4 4 4 5 5 4 3 3 3 2 2
0 0 0 0 0 0 1 2 2 1 1 2 2 3 4 5 5 6 8 9 10 10 9 8 9 9 9 8 7 7 7 8 8 7 7 7 7 7 6 5 5 6 6 5 4 3 3 3 2
0 0 0 0 0 0 1 1 1 1 1 1 3 4 4 5 5 6 7 8 9 10 9 9 10 10 10 9 9 8 8 8 8 8 8 8 9 9 8 8 7 7 6 5 5 4 4 4 3
0 0 0 0 0 0 1 0 0 0 1 1 2 3 4 3 4 6 7 9 10 11 11 10 11 11 11 11 10 9 9 8 7 7 8 8 8 9 9 9 9 8 8 7 7 6 6 6 5
0 0 0 0 0 0 0 0 0 0 1 1 2 3 3 3 4 6 7 8 9 11 11 10 10 11 12 12 11 10 9 7 7 7 7 7 7 7 8 9 9 10 10 9 9 8 8 8 7
0 0 0 0 0 0 0 0 0 0 1 1 2 3 3 3 4 6 7 8 8 9 9 8 8 9 10 11 10 9 8 7 7 7 7 7 7 7 7 9 10 11 11 11 10 10 9 9 8
0 0 0 0 0 0 0 0 0 0 1 1 3 4 3 2 3 5 7 7 7 7 7 7 7 7 8 8 8 8 7 6 6 6 7 7 7 7 8 9 10 11 12 12 11 10 9 9 8
0 0 0 0 0 0 0 0 0 0 1 2 3 4 3 2 3 6 8 8 7 6 6 6 6 7 7 7 7 6 6 5 5 6 6 7 7 7 7 8 10 11 12 12 11 11 10 9 8
0 0 0 0 0 0 0 0 1 1 1 2 3 3 3 2 4 7 10 12 10 7 5 5 5 6 7 8 8 7 5 5 5 5 5 5 5 5 5 6 8 9 11 11 11 10 10 9 8
0 0 0 0 0 0 0 1 1 1 2 2 2 3 2 3 4 7 11 13 11 6 4 4 5 5 6 7 7 6 5 4 4 4 4 4 4 4 4 4 5 7 9 10 9 9 8 8 7
0 0 0 0 0 0 0 0 1 1 2 2 2 3 3 3 4 5 9 12 9 5 4 4 4 5 5 5 5 4 4 4 4 3 3 3 3 3 3 4 4 5 6 7 7 7 6 6 5
0 0 0 0 0 0 0 0 1 1 2 2 2 2 3 4 4 4 7 11 9 5 5 5 5 5 5 4 4 3 3 3 3 3 3 3 2 2 3 3 4 4 5 6 6 5 4 4 4
Wind_Speed
5 3 1 2 5 4 3 4 2 2 1 2 5 7 7 5 4 4 3 13 15 14 11 13 16 16 15 14 14 13 13 13 12 12 13 13 12 12 11 11 11 11 11 11 10 10 9 9 10
2 3 2 4 5 2 5 3 2 2 2 3 5 6 7 5 6 9 7 13 16 15 10 12 16 16 15 14 14 13 13 13 12 12 12 12 12 11 11 11 11 10 10 10 10 9 8 8 8
2 2 3 4 2 3 5 4 4 2 1 3 4 3 5 6 8 9 10 17 14 12 10 12 17 16 15 15 14 14 13 13 12 12 12 11 11 11 10 10 10 9 9 9 9 8 8 7 8
1 3 3 3 3 6 6 6 6 2 2 2 5 5 3 4 8 11 17 17 15 11 10 12 17 16 15 15 14 14 13 13 12 12 12 11 10 10 9 10 9 9 8 8 8 8 7 7 7
3 4 4 2 5 6 5 6 6 2 1 2 5 5 2 2 12 18 18 17 15 12 9 11 16 16 15 15 14 14 13 13 12 12 11 10 9 9 8 9 9 8 8 8 8 7 6 6 6
3 4 3 3 6 7 5 4 3 1 1 2 5 6 2 6 14 16 16 14 15 14 11 10 16 17 15 15 14 13 13 12 12 11 10 10 9 8 8 8 8 8 7 7 7 6 6 5 5
3 2 2 4 6 7 6 4 2 3 2 3 6 6 4 6 11 14 14 14 12 13 11 9 9 12 15 15 14 13 12 12 11 10 10 9 8 8 8 7 7 7 7 6 6 6 5 4 4
5 3 2 3 4 7 6 3 2 3 3 4 5 8 7 9 11 13 13 12 11 10 10 9 8 7 8 9 13 13 12 12 11 11 10 9 9 8 8 7 6 6 6 6 5 5 4 4 4
3 3 4 6 5 6 6 3 4 0 4 2 1 5 9 14 14 14 12 9 9 10 8 9 9 8 7 7 10 11 11 11 10 9 10 8 3 3 4 6 7 7 6 6 5 4 4 3 3
4 3 9 8 6 5 6 4 3 2 3 2 4 6 13 14 15 15 14 13 12 12 10 9 9 9 8 8 6 5 5 5 5 4 5 3 3 2 4 5 7 7 5 5 4 3 2 1 1
3 6 9 9 9 6 6 5 2 3 2 5 9 12 14 13 12 13 13 13 13 12 11 10 10 9 8 5 5 3 3 3 4 4 4 3 2 2 2 1 3 3 3 2 1 1 0 0 1
4 8 8 9 9 6 5 3 1 3 7 7 12 14 14 14 14 13 13 13 12 11 11 10 10 9 8 6 6 5 4 4 4 5 5 4 2 2 2 2 2 1 1 1 1 1 1 1 1
5 8 9 9 9 6 4 3 2 3 4 6 9 11 13 14 13 12 12 12 13 12 11 11 10 10 8 7 6 6 5 5 5 5 5 5 4 3 3 2 2 2 2 2 1 1 1 1 1
6 7 9 8 8 5 2 4 1 4 5 7 9 10 11 12 12 11 11 12 12 12 12 10 10 9 9 7 6 6 6 6 5 5 6 6 4 4 3 3 3 2 2 2 2 3 2 1 1
4 7 10 8 6 5 1 4 4 6 5 7 8 9 10 10 11 13 13 13 14 13 12 10 10 9 9 8 7 6 6 6 5 5 6 6 5 5 4 3 3 3 3 3 2 2 1 1 1
5 4 6 9 5 5 3 7 10 6 7 6 6 8 8 8 9 10 12 11 11 12 11 10 10 9 9 8 6 5 5 6 5 5 5 6 6 6 4 3 3 3 3 2 2 2 1 1 1
3 3 7 9 6 3 3 7 9 6 6 6 6 7 8 6 6 7 10 10 11 12 12 10 9 10 9 7 5 4 4 5 4 5 5 6 7 6 5 4 3 3 3 2 3 2 2 2 2
7 5 7 8 6 2 3 5 5 5 6 6 6 6 7 8 7 8 9 9 9 10 10 9 8 8 7 5 4 3 3 3 3 4 5 7 6 6 5 4 3 3 3 2 2 2 2 2 2
7 7 10 12 9 3 4 5 5 4 3 4 5 6 6 6 5 6 7 8 8 7 8 9 9 8 6 5 5 4 4 3 3 3 5 7 6 6 5 4 3 3 3 3 3 2 2 1 1
8 9 11 12 9 3 3 4 4 1 5 7 8 8 8 6 4 5 6 7 8 8 8 8 8 8 7 5 5 4 4 4 4 3 4 6 6 6 6 5 4 4 3 3 3 2 2 1 1
9 8 9 9 8 3 1 5 4 3 2 2 5 7 8 10 9 8 7 8 8 8 8 8 8 8 7 5 3 3 2 1 1 3 3 5 6 6 6 6 5 4 4 4 3 3 3 2 1
9 9 7 7 4 5 0 2 6 3 3 2 1 3 5 7 9 9 8 8 8 7 7 6 6 7 6 7 6 6 5 4 4 4 3 3 4 5 5 6 5 5 4 4 4 4 3 3 2
9 8 5 4 2 2 2 1 6 1 1 2 2 3 4 5 8 9 9 9 7 7 6 5 5 5 5 6 7 7 5 4 2 3 4 4 3 4 4 5 5 5 4 4 4 3 3 3 3
6 2 3 3 3 2 5 3 4 2 3 3 1 2 3 4 5 7 7 7 6 6 6 5 5 4 4 5 6 6 6 5 4 4 4 4 2 3 4 4 4 4 4 4 4 4 4 3 3
0 3 3 5 3 4 3 2 5 4 2 2 2 2 2 3 5 6 7 7 7 7 7 6 6 4 4 5 5 5 6 6 6 5 5 4 2 2 4 4 4 4 4 4 4 4 4 4 4
4 7 7 5 5 4 2 3 4 3 1 1 2 3 3 2 4 5 7 7 7 8 8 7 7 5 5 5 4 4 5 4 4 4 4 4 3 3 4 4 4 4 4 4 4 3 3 3 3
3 3 7 6 2 1 3 3 3 2 3 2 1 3 3 2 3 4 5 6 7 7 8 8 8 6 5 5 4 4 4 4 4 4 3 3 3 3 3 3 3 3 4 4 4 3 4 4 4
4 4 4 4 4 3 3 3 4 4 4 2 1 2 1 1 2 4 5 5 5 6 6 6 6 6 4 5 5 4 4 4 4 3 4 3 3 3 3 3 4 3 3 3 3 3 3 3 4
2 2 3 2 5 6 4 5 4 6 4 1 1 1 1 1 3 3 4 5 5 4 5 5 5 5 4 4 4 4 3 3 3 3 4 3 3 3 3 4 4 3 3 3 3 3 4 4 4
3 2 4 3 3 3 3 6 2 2 1 1 2 1 0 0 2 3 4 5 4 5 5 5 5 5 5 5 4 4 3 3 3 3 3 3 3 3 3 3 3 3 3 3 4 4 4 4 4
Wind_Direction
185 190 156 61 50 38 295 255 222 307 8 49 80 97 100 100 138 159 148 143 140 148 151 146 141 138 135 133 131 129 126 124 121 118 116 114 113 112 114 113 113 114 115 114 114 115 119 122 124
192 179 73 54 73 17 291 265 257 227 171 122 85 93 88 82 107 121 125 143 145 148 149 147 142 139 138 136 134 133 131 129 126 122 120 119 118 117 118 118 118 118 119 118 116 116 120 125 127
219 175 91 71 94 190 252 279 273 268 195 139 101 80 98 125 129 142 148 146 144 145 147 149 144 141 140 139 138 137 135 134 131 127 124 123 122 123 122 121 122 122 121 121 118 116 119 124 125
104 57 50 69 257 236 234 268 276 293 320 85 106 81 74 135 147 144 142 146 143 144 147 151 145 143 142 142 142 142 141 139 137 134 132 129 128 128 128 129 127 126 124 123 122 120 124 127 128
79 79 51 347 273 258 239 253 254 266 256 107 104 101 73 47 118 135 144 147 145 144 148 151 147 146 146 146 146 146 146 144 142 140 139 136 133 132 132 134 135 133 131 129 128 129 132 135 135
55 74 76 275 277 279 268 255 241 243 234 133 114 117 110 122 129 144 146 147 147 146 148 150 151 149 149 150 150 150 150 149 148 146 144 143 141 139 140 141 141 138 137 135 138 140 143 144 144
130 116 204 247 282 291 278 267 205 196 182 183 139 113 129 151 147 145 143 141 142 144 146 150 153 153 153 153 153 153 154 154 153 152 153 151 151 154 154 153 150 146 145 144 146 151 155 155 159
158 113 294 263 269 278 278 302 239 192 171 149 134 138 164 172 146 136 134 135 139 144 149 152 150 153 153 155 159 159 159 159 160 160 160 159 160 165 164 163 163 160 158 157 158 161 167 175 180
123 90 252 244 242 264 286 310 301 309 100 99 129 157 157 146 137 131 132 132 143 151 158 158 157 158 157 159 166 164 165 166 164 165 166 162 162 167 169 172 173 173 174 177 180 181 189 198 201
120 176 237 234 232 254 278 270 265 69 73 79 70 100 131 142 144 144 149 154 158 162 168 168 167 164 163 168 160 161 166 167 163 163 167 161 162 179 175 182 181 181 182 189 200 202 210 222 228
198 218 246 259 254 251 264 269 275 129 209 183 158 149 148 151 153 155 159 161 163 163 165 168 169 167 167 163 156 163 162 160 164 169 169 157 157 178 176 170 183 189 185 189 211 221 216 206 215
249 258 253 258 263 260 252 243 252 206 214 190 162 155 156 160 165 167 164 165 162 161 168 166 166 163 168 161 161 166 165 166 174 176 170 158 156 166 168 170 176 180 183 181 193 202 222 234 228
259 270 275 274 279 269 264 240 204 241 206 163 153 156 163 169 170 171 164 161 160 164 169 168 169 164 164 163 168 169 172 176 179 173 174 166 164 172 174 177 179 186 180 182 189 200 199 206 215
262 283 289 284 281 277 261 275 228 245 185 158 161 169 176 174 174 167 164 163 168 169 169 167 167 166 162 168 171 171 175 175 175 177 179 175 173 172 172 177 183 189 184 184 184 191 191 203 185
295 310 307 286 271 262 54 310 251 218 172 170 176 177 174 176 176 174 175 170 169 171 167 166 167 166 166 170 176 173 176 173 177 183 180 178 177 176 171 174 184 194 190 182 178 186 177 192 192
345 328 297 287 273 263 150 256 257 209 163 176 186 177 172 177 178 179 174 166 165 164 164 168 167 166 169 171 175 172 173 173 180 180 180 181 181 178 170 174 192 193 181 177 180 177 175 207 208
331 275 276 294 279 271 191 240 247 211 171 191 188 176 168 168 168 170 170 166 164 164 163 166 164 166 168 165 166 165 167 174 177 175 179 184 184 180 174 180 191 185 181 187 195 178 176 196 224
247 262 279 279 284 303 258 248 249 226 181 185 184 173 168 169 179 170 167 164 159 160 160 162 163 168 164 154 146 143 156 174 175 178 182 181 184 181 175 180 187 180 178 187 185 173 180 193 204
238 260 275 278 282 296 269 267 265 238 181 171 172 179 170 179 170 150 152 151 147 151 156 162 164 169 161 160 161 166 179 185 188 193 185 183 183 179 175 181 179 179 183 186 172 161 169 206 158
248 259 273 287 287 264 263 283 281 215 192 181 175 177 167 157 141 148 148 148 152 157 159 160 163 166 170 176 174 175 171 180 182 192 192 189 183 180 184 178 182 184 177 174 172 156 156 199 154
254 240 252 265 297 324 10 328 326 332 32 146 174 173 164 160 162 162 159 159 156 160 165 168 170 168 170 165 147 125 103 97 148 186 199 199 188 183 181 182 181 182 178 188 189 173 169 184 204
259 252 244 259 288 289 163 276 298 295 9 28 169 164 172 170 165 163 162 159 163 165 161 161 166 164 167 160 162 165 175 183 195 187 191 192 188 184 181 182 179 179 182 187 192 181 178 162 183
240 251 246 257 251 301 332 165 280 321 354 303 249 173 180 182 172 169 171 170 165 155 150 151 158 161 164 167 170 169 175 182 171 163 167 178 190 188 182 181 175 177 183 187 186 180 182 174 175
238 294 335 16 65 302 266 179 269 267 238 251 244 181 176 167 165 169 168 156 148 147 141 144 150 155 162 167 173 175 177 174 165 172 176 184 187 189 188 180 176 178 184 190 190 188 187 185 178
301 87 12 346 359 251 273 165 240 257 246 211 193 172 133 150 157 159 154 156 157 154 149 153 155 155 163 164 168 173 172 169 174 178 179 181 183 194 202 191 185 186 188 188 182 185 194 191 188
233 150 167 208 228 264 300 221 250 268 298 101 151 129 109 122 148 160 164 163 163 163 162 163 165 163 170 173 174 168 166 168 175 177 175 182 188 197 194 181 183 188 185 187 183 189 200 194 203
206 211 180 157 191 222 256 262 287 311 341 355 104 114 122 144 149 161 166 164 166 169 171 170 170 170 176 177 168 163 165 164 166 167 167 176 176 181 177 176 180 184 185 190 185 196 205 198 206
177 180 97 119 162 232 254 233 238 256 268 280 125 135 145 152 160 157 161 167 172 175 174 166 163 170 172 174 171 169 169 168 166 163 173 172 173 176 168 176 184 189 191 194 190 203 212 206 215
2 49 101 135 165 172 223 251 222 203 215 245 258 203 185 187 175 161 169 176 173 166 166 166 167 159 169 183 170 159 171 171 161 167 178 175 169 172 177 182 189 201 199 191 186 210 210 208 219
154 172 139 164 243 175 180 253 270 184 210 239 271 248 144 106 163 163 170 167 169 166 170 172 170 169 177 178 167 163 161 163 168 179 186 175 174 181 180 175 184 210 210 201 198 212 217 216 221